Flag for Canada Weather past 2 weeks in Grise Fiord, Nunavut Territory, Canada

Now
43 °F

Light rain. Partly sunny.


Feels Like: 31 °F
Forecast: 36 / 40 °F
Wind: 36 mph from Southeast

Location: Thule A. B.

Current Time: Aug 20, 2014 at 1:12:16 AM

Latest Report: Aug 19, 2014 at 11:58 PM


Visibility: N/A

Pressure: 29.77 "Hg

Humidity: 81%

Dew point: 37 °F

Location of Grise FiordLocation

Historic Weather in Grise Fiord — Graph

°F

Grise Fiord temperature yesterday

Maximum temperature yesterday: 48 °F (at 7:58 AM)
Minimum temperature yesterday: 36 °F (at 2:58 AM)
Average temperature yesterday: 43 °F

Past Weeks' High & Low Weather Summary

 TemperatureHumidityPressure
High54 °F (Aug 12, 12:58 PM)93% (Aug 16, 12:58 PM)30.08 "Hg (Aug 16, 12:58 PM)
Low34 °F (Aug 18, 12:58 AM)44% (Aug 5, 3:58 PM)29.28 "Hg (Aug 13, 3:58 AM)
Average44 °F71%29.76 "Hg
* Reported Aug 4 11:58 PM — Aug 19 11:58 PM, Grise Fiord, Weather by CustomWeather, © 2014

Note: Actual official high and low records may vary slightly from our data, if they occured in-between our weather recording intervals... More about our weather records

Advertising

Grise Fiord weather history for previous 24 hours

 ConditionsComfort  
Time TempWeatherWind HumidityBarometerVisibility
11:58 PM
Aug 19
43 °FLight rain. Partly sunny.36 mph81%29.77 "HgN/A
10:58 PM45 °FCloudy.33 mph76%29.76 "HgN/A
9:58 PM45 °FLight rain. Partly sunny.29 mph81%29.76 "HgN/A
8:58 PM45 °FPartly sunny.44 mph76%29.74 "HgN/A
7:58 PM46 °FScattered clouds.52 mph71%29.71 "HgN/A
6:58 PM46 °FMore clouds than sun.45 mph71%29.72 "HgN/A
5:58 PM45 °FBroken clouds.38 mph76%29.74 "HgN/A
4:58 PM45 °FMostly cloudy.25 mph76%29.79 "HgN/A
3:58 PM45 °FMostly cloudy.31 mph76%29.78 "HgN/A
2:58 PM46 °FCloudy.29 mph66%29.79 "HgN/A
1:58 PM46 °FOvercast.30 mph71%29.79 "HgN/A
12:58 PM46 °FOvercast.14 mph66%29.79 "HgN/A
11:58 AM47 °FMostly cloudy.13 mph67%29.80 "HgN/A
10:58 AM45 °FOvercast.6 mph76%29.81 "HgN/A
9:58 AM46 °FPartly sunny.9 mph66%29.83 "HgN/A
8:58 AM45 °FLight rain. Overcast.21 mph76%29.85 "Hg3 mi
7:58 AM48 °FScattered clouds.20 mph62%29.85 "HgN/A
6:58 AM46 °FScattered clouds.17 mph71%29.88 "HgN/A
5:58 AM37 °FPartly sunny.No wind93%29.91 "HgN/A
5:04 AM37 °FPartly sunny.6 mph87%29.99 "HgN/A
4:58 AM37 °FPartly sunny.7 mph87%29.94 "HgN/A
3:58 AM37 °FPartly sunny.6 mph87%29.95 "HgN/A
2:58 AM36 °FSunny.6 mph93%29.97 "HgN/A
1:58 AM37 °FSunny.5 mph87%29.98 "HgN/A
Weather by CustomWeather, © 2014

See weather overviewHow to use our weather pages